GFSMA_prec_pwat_000.txt.gz
Precipitable_Water
0.83 0.82 0.78 0.79 0.81 0.83 0.81 0.78 0.71 0.61 0.54 0.51 0.53 0.51 0.50 0.51 0.54 0.57 0.57 0.62 0.70 0.79 0.91 1.02 1.13 1.17 1.25 1.40 1.50 1.47 1.42 1.46 1.47 1.45 1.45 1.36 1.27 1.25 1.21 1.09 1.12 1.11 1.15
0.85 0.82 0.81 0.81 0.82 0.85 0.84 0.74 0.64 0.58 0.54 0.54 0.54 0.53 0.52 0.53 0.56 0.54 0.52 0.50 0.51 0.60 0.71 0.82 0.96 1.11 1.17 1.27 1.33 1.44 1.51 1.47 1.46 1.48 1.52 1.49 1.43 1.37 1.28 1.16 1.08 1.16 1.14
0.79 0.79 0.78 0.77 0.79 0.84 0.78 0.70 0.65 0.58 0.56 0.57 0.55 0.56 0.56 0.56 0.57 0.54 0.52 0.53 0.54 0.54 0.59 0.69 0.89 1.03 1.17 1.18 1.30 1.33 1.41 1.49 1.50 1.52 1.51 1.51 1.48 1.41 1.39 1.33 1.15 1.14 1.15
0.74 0.72 0.70 0.70 0.74 0.77 0.72 0.67 0.61 0.54 0.56 0.56 0.56 0.56 0.56 0.56 0.56 0.56 0.57 0.55 0.56 0.58 0.61 0.65 0.68 0.89 1.07 1.17 1.18 1.22 1.30 1.36 1.45 1.48 1.49 1.58 1.57 1.48 1.43 1.43 1.39 1.24 1.14
0.72 0.69 0.67 0.66 0.69 0.67 0.63 0.62 0.57 0.55 0.55 0.55 0.54 0.55 0.55 0.55 0.57 0.57 0.55 0.56 0.56 0.58 0.63 0.63 0.66 0.70 0.72 0.80 0.92 1.05 1.17 1.29 1.34 1.40 1.46 1.46 1.48 1.61 1.54 1.48 1.46 1.42 1.28
0.70 0.70 0.68 0.66 0.66 0.62 0.59 0.58 0.54 0.56 0.56 0.55 0.54 0.53 0.54 0.55 0.56 0.56 0.55 0.53 0.55 0.57 0.57 0.63 0.67 0.67 0.67 0.69 0.70 0.77 1.05 1.18 1.27 1.32 1.39 1.40 1.45 1.47 1.50 1.53 1.48 1.48 1.43
0.67 0.68 0.67 0.66 0.67 0.63 0.60 0.58 0.55 0.53 0.53 0.55 0.51 0.50 0.50 0.52 0.53 0.52 0.52 0.54 0.53 0.54 0.57 0.60 0.60 0.61 0.65 0.67 0.68 0.75 0.83 0.98 1.03 1.21 1.27 1.31 1.38 1.45 1.47 1.42 1.54 1.54 1.49
0.61 0.64 0.65 0.63 0.62 0.61 0.59 0.58 0.56 0.54 0.54 0.55 0.47 0.46 0.39 0.43 0.47 0.50 0.50 0.48 0.50 0.53 0.51 0.51 0.51 0.49 0.51 0.56 0.65 0.67 0.66 0.76 0.88 0.93 1.00 1.13 1.23 1.32 1.36 1.44 1.39 1.57 1.52
0.59 0.60 0.62 0.63 0.61 0.62 0.57 0.56 0.55 0.53 0.49 0.53 0.55 0.48 0.40 0.35 0.40 0.44 0.45 0.44 0.48 0.45 0.47 0.44 0.46 0.43 0.42 0.46 0.55 0.65 0.66 0.66 0.77 0.74 0.81 0.88 1.02 1.18 1.30 1.34 1.43 1.40 1.46
0.58 0.58 0.60 0.63 0.65 0.66 0.62 0.59 0.57 0.58 0.56 0.51 0.56 0.56 0.52 0.45 0.36 0.34 0.41 0.42 0.41 0.42 0.41 0.41 0.41 0.41 0.45 0.43 0.47 0.55 0.65 0.69 0.65 0.71 0.69 0.75 0.89 1.05 1.16 1.24 1.30 1.42 1.44
0.54 0.54 0.54 0.55 0.56 0.57 0.58 0.60 0.60 0.61 0.59 0.54 0.51 0.51 0.47 0.46 0.43 0.38 0.34 0.36 0.39 0.42 0.42 0.39 0.38 0.41 0.38 0.37 0.45 0.51 0.55 0.61 0.63 0.66 0.73 0.72 0.72 0.90 1.05 1.12 1.22 1.25 1.40
0.43 0.43 0.44 0.46 0.48 0.49 0.50 0.52 0.55 0.53 0.53 0.52 0.52 0.50 0.47 0.41 0.40 0.40 0.40 0.40 0.40 0.40 0.39 0.38 0.38 0.37 0.38 0.41 0.43 0.48 0.53 0.59 0.66 0.70 0.76 0.71 0.68 0.74 0.91 1.04 1.15 1.19 1.35
0.36 0.36 0.39 0.40 0.42 0.45 0.47 0.50 0.53 0.55 0.55 0.58 0.57 0.58 0.55 0.53 0.53 0.52 0.49 0.43 0.37 0.37 0.37 0.39 0.38 0.38 0.37 0.39 0.45 0.48 0.51 0.54 0.59 0.67 0.67 0.67 0.66 0.70 0.76 0.92 1.06 1.11 1.16
0.38 0.41 0.42 0.44 0.46 0.49 0.51 0.54 0.54 0.57 0.58 0.61 0.57 0.58 0.56 0.56 0.55 0.50 0.44 0.38 0.34 0.34 0.34 0.33 0.37 0.37 0.37 0.35 0.38 0.43 0.46 0.50 0.52 0.58 0.60 0.67 0.68 0.69 0.67 0.75 0.94 1.00 1.04
0.44 0.46 0.48 0.49 0.51 0.50 0.51 0.57 0.59 0.58 0.54 0.53 0.51 0.52 0.53 0.52 0.51 0.48 0.45 0.42 0.36 0.29 0.27 0.31 0.30 0.35 0.35 0.36 0.35 0.45 0.44 0.44 0.48 0.55 0.58 0.65 0.60 0.60 0.58 0.59 0.71 0.91 0.89
0.46 0.47 0.48 0.46 0.46 0.45 0.47 0.49 0.49 0.47 0.45 0.45 0.44 0.41 0.40 0.39 0.37 0.37 0.36 0.35 0.33 0.30 0.25 0.29 0.29 0.31 0.33 0.34 0.34 0.33 0.37 0.43 0.46 0.50 0.53 0.56 0.55 0.59 0.59 0.58 0.56 0.66 0.76
0.41 0.40 0.42 0.43 0.46 0.44 0.44 0.41 0.40 0.40 0.36 0.33 0.32 0.29 0.27 0.26 0.25 0.25 0.25 0.25 0.25 0.25 0.22 0.24 0.27 0.29 0.28 0.30 0.31 0.30 0.31 0.36 0.41 0.42 0.46 0.50 0.53 0.53 0.56 0.59 0.60 0.52 0.66
0.40 0.41 0.45 0.46 0.44 0.41 0.39 0.38 0.35 0.33 0.30 0.28 0.26 0.24 0.22 0.23 0.22 0.23 0.24 0.23 0.24 0.25 0.24 0.20 0.25 0.27 0.27 0.29 0.32 0.31 0.32 0.30 0.32 0.35 0.38 0.41 0.46 0.50 0.54 0.54 0.59 0.58 0.57
0.44 0.45 0.46 0.44 0.41 0.39 0.38 0.36 0.33 0.29 0.26 0.23 0.22 0.22 0.22 0.22 0.21 0.22 0.22 0.21 0.22 0.23 0.23 0.22 0.20 0.24 0.24 0.26 0.25 0.28 0.29 0.30 0.32 0.31 0.32 0.34 0.38 0.45 0.50 0.53 0.53 0.56 0.53
0.47 0.48 0.47 0.45 0.41 0.37 0.34 0.33 0.30 0.26 0.24 0.23 0.23 0.22 0.21 0.21 0.20 0.20 0.19 0.19 0.20 0.20 0.20 0.19 0.19 0.20 0.22 0.23 0.23 0.21 0.20 0.23 0.23 0.25 0.26 0.27 0.29 0.33 0.41 0.46 0.49 0.52 0.52
0.48 0.47 0.45 0.43 0.37 0.34 0.33 0.31 0.27 0.25 0.23 0.22 0.21 0.20 0.19 0.19 0.19 0.20 0.20 0.20 0.22 0.22 0.22 0.22 0.21 0.21 0.21 0.22 0.21 0.21 0.20 0.19 0.20 0.22 0.21 0.22 0.25 0.28 0.31 0.39 0.45 0.50 0.55
0.44 0.43 0.38 0.33 0.32 0.31 0.30 0.28 0.27 0.25 0.23 0.21 0.19 0.18 0.18 0.18 0.19 0.21 0.24 0.25 0.26 0.24 0.23 0.23 0.23 0.22 0.22 0.23 0.23 0.22 0.21 0.19 0.16 0.23 0.22 0.21 0.25 0.24 0.27 0.33 0.40 0.46 0.52
0.32 0.30 0.29 0.27 0.25 0.26 0.27 0.27 0.26 0.23 0.21 0.19 0.18 0.17 0.18 0.20 0.23 0.25 0.27 0.28 0.29 0.29 0.30 0.29 0.26 0.26 0.26 0.26 0.26 0.25 0.24 0.23 0.21 0.24 0.26 0.23 0.28 0.26 0.30 0.33 0.37 0.44 0.49
0.23 0.23 0.23 0.24 0.23 0.23 0.23 0.23 0.22 0.20 0.19 0.18 0.18 0.18 0.20 0.23 0.26 0.28 0.28 0.28 0.30 0.31 0.31 0.31 0.30 0.30 0.31 0.32 0.30 0.28 0.27 0.26 0.27 0.28 0.30 0.23 0.29 0.28 0.30 0.31 0.32 0.37 0.44
0.21 0.21 0.22 0.21 0.20 0.20 0.21 0.20 0.20 0.19 0.18 0.18 0.19 0.22 0.25 0.27 0.29 0.30 0.30 0.29 0.30 0.31 0.33 0.34 0.34 0.35 0.34 0.34 0.34 0.31 0.28 0.26 0.24 0.25 0.29 0.27 0.27 0.27 0.29 0.28 0.30 0.32 0.39
0.20 0.20 0.20 0.21 0.20 0.19 0.20 0.20 0.20 0.19 0.18 0.19 0.21 0.26 0.28 0.30 0.31 0.32 0.31 0.31 0.29 0.30 0.32 0.33 0.34 0.34 0.34 0.35 0.35 0.34 0.32 0.27 0.26 0.24 0.29 0.27 0.28 0.28 0.25 0.29 0.29 0.29 0.36

GFSMA_prec_pwat_003.txt.gz
Precipitable_Water
0.89 0.87 0.82 0.81 0.82 0.85 0.85 0.85 0.80 0.67 0.60 0.58 0.60 0.57 0.54 0.54 0.56 0.54 0.53 0.50 0.51 0.54 0.62 0.78 0.93 1.06 1.19 1.28 1.34 1.49 1.55 1.53 1.50 1.49 1.45 1.41 1.39 1.29 1.22 1.21 1.15 1.06 1.13
0.84 0.78 0.75 0.75 0.77 0.81 0.84 0.83 0.72 0.64 0.59 0.58 0.58 0.58 0.58 0.59 0.60 0.58 0.55 0.55 0.54 0.56 0.59 0.64 0.78 0.92 1.09 1.15 1.20 1.28 1.43 1.53 1.53 1.48 1.49 1.47 1.46 1.44 1.37 1.32 1.27 1.20 1.10
0.75 0.73 0.73 0.73 0.74 0.79 0.82 0.79 0.71 0.66 0.59 0.58 0.57 0.59 0.60 0.59 0.60 0.58 0.58 0.57 0.58 0.59 0.60 0.63 0.66 0.76 0.90 1.09 1.16 1.19 1.23 1.37 1.47 1.49 1.48 1.49 1.50 1.55 1.53 1.45 1.39 1.32 1.19
0.71 0.71 0.70 0.71 0.73 0.76 0.76 0.73 0.68 0.61 0.57 0.56 0.57 0.58 0.58 0.57 0.58 0.58 0.59 0.59 0.59 0.61 0.61 0.61 0.64 0.66 0.68 0.74 0.99 1.17 1.19 1.23 1.33 1.43 1.48 1.47 1.49 1.51 1.55 1.54 1.49 1.43 1.37
0.71 0.70 0.69 0.68 0.71 0.70 0.70 0.67 0.62 0.57 0.52 0.52 0.54 0.56 0.56 0.55 0.55 0.56 0.57 0.58 0.58 0.61 0.60 0.62 0.63 0.65 0.65 0.68 0.69 0.81 1.09 1.18 1.21 1.28 1.36 1.45 1.47 1.47 1.49 1.56 1.52 1.46 1.43
0.71 0.70 0.67 0.64 0.67 0.66 0.63 0.62 0.59 0.58 0.54 0.51 0.50 0.50 0.54 0.54 0.54 0.54 0.54 0.53 0.57 0.56 0.60 0.63 0.65 0.64 0.63 0.64 0.63 0.66 0.77 0.96 1.08 1.11 1.25 1.34 1.43 1.44 1.43 1.46 1.50 1.58 1.50
0.66 0.66 0.66 0.64 0.64 0.62 0.61 0.61 0.59 0.56 0.53 0.55 0.53 0.52 0.51 0.51 0.51 0.52 0.53 0.54 0.54 0.55 0.58 0.60 0.56 0.57 0.58 0.55 0.55 0.63 0.67 0.69 0.83 0.87 0.91 1.11 1.26 1.36 1.42 1.42 1.47 1.46 1.64
0.63 0.62 0.61 0.60 0.60 0.60 0.63 0.64 0.62 0.57 0.56 0.57 0.48 0.47 0.42 0.47 0.51 0.51 0.52 0.53 0.52 0.55 0.54 0.51 0.51 0.50 0.49 0.53 0.54 0.54 0.63 0.67 0.68 0.74 0.77 0.76 0.93 1.10 1.23 1.32 1.37 1.41 1.40
0.58 0.57 0.56 0.56 0.56 0.58 0.57 0.61 0.64 0.61 0.55 0.57 0.55 0.47 0.41 0.37 0.43 0.52 0.51 0.50 0.52 0.51 0.50 0.45 0.47 0.46 0.45 0.47 0.50 0.53 0.54 0.61 0.69 0.69 0.80 0.74 0.72 0.79 1.03 1.18 1.25 1.27 1.33
0.51 0.49 0.47 0.45 0.45 0.48 0.49 0.51 0.57 0.58 0.61 0.56 0.60 0.57 0.55 0.52 0.42 0.38 0.48 0.50 0.49 0.46 0.46 0.48 0.45 0.45 0.43 0.37 0.41 0.49 0.52 0.55 0.60 0.63 0.67 0.75 0.75 0.75 0.80 0.93 1.10 1.16 1.19
0.40 0.39 0.38 0.38 0.38 0.39 0.39 0.41 0.44 0.47 0.51 0.52 0.55 0.55 0.53 0.51 0.49 0.41 0.35 0.42 0.46 0.46 0.50 0.51 0.49 0.48 0.44 0.40 0.41 0.43 0.49 0.53 0.61 0.61 0.59 0.70 0.77 0.77 0.75 0.78 0.82 0.96 1.11
0.38 0.38 0.39 0.39 0.38 0.38 0.39 0.42 0.43 0.44 0.44 0.46 0.47 0.48 0.50 0.45 0.41 0.40 0.39 0.37 0.40 0.44 0.47 0.48 0.48 0.47 0.46 0.43 0.41 0.44 0.46 0.51 0.54 0.62 0.64 0.68 0.70 0.67 0.71 0.76 0.79 0.82 0.96
0.38 0.40 0.42 0.42 0.42 0.41 0.41 0.43 0.45 0.47 0.49 0.50 0.51 0.52 0.56 0.56 0.54 0.49 0.48 0.45 0.44 0.44 0.43 0.47 0.47 0.47 0.46 0.43 0.43 0.41 0.45 0.45 0.51 0.55 0.60 0.62 0.60 0.68 0.70 0.69 0.71 0.78 0.85
0.38 0.42 0.42 0.43 0.45 0.46 0.48 0.48 0.49 0.50 0.50 0.51 0.52 0.53 0.54 0.57 0.56 0.54 0.51 0.46 0.41 0.41 0.41 0.41 0.44 0.43 0.42 0.42 0.40 0.38 0.44 0.42 0.43 0.54 0.55 0.62 0.65 0.62 0.65 0.61 0.59 0.63 0.74
0.41 0.44 0.45 0.46 0.47 0.47 0.50 0.50 0.47 0.47 0.48 0.48 0.47 0.49 0.50 0.52 0.52 0.52 0.51 0.49 0.43 0.35 0.35 0.40 0.38 0.42 0.42 0.40 0.40 0.37 0.41 0.40 0.40 0.48 0.52 0.55 0.60 0.54 0.51 0.50 0.53 0.55 0.57
0.44 0.43 0.42 0.42 0.41 0.44 0.46 0.47 0.47 0.46 0.42 0.42 0.42 0.41 0.42 0.42 0.41 0.41 0.39 0.37 0.35 0.31 0.26 0.29 0.30 0.33 0.36 0.34 0.34 0.35 0.34 0.34 0.38 0.42 0.44 0.49 0.53 0.52 0.48 0.47 0.48 0.53 0.52
0.42 0.41 0.42 0.43 0.46 0.49 0.50 0.46 0.44 0.42 0.38 0.36 0.36 0.35 0.33 0.32 0.30 0.30 0.29 0.28 0.26 0.26 0.23 0.24 0.28 0.31 0.29 0.28 0.28 0.31 0.34 0.31 0.31 0.38 0.38 0.40 0.41 0.48 0.51 0.48 0.48 0.49 0.51
0.43 0.43 0.44 0.46 0.49 0.48 0.46 0.41 0.38 0.37 0.34 0.33 0.30 0.27 0.25 0.25 0.25 0.26 0.26 0.26 0.26 0.27 0.25 0.22 0.25 0.27 0.29 0.29 0.30 0.31 0.33 0.34 0.33 0.34 0.33 0.32 0.38 0.37 0.41 0.46 0.49 0.48 0.50
0.47 0.48 0.49 0.47 0.45 0.41 0.38 0.36 0.34 0.33 0.32 0.31 0.27 0.24 0.24 0.25 0.24 0.24 0.24 0.24 0.24 0.23 0.23 0.22 0.21 0.23 0.25 0.26 0.24 0.25 0.26 0.28 0.28 0.30 0.30 0.30 0.31 0.32 0.34 0.38 0.43 0.47 0.47
0.46 0.45 0.45 0.45 0.43 0.39 0.36 0.33 0.32 0.32 0.30 0.27 0.25 0.25 0.24 0.23 0.22 0.21 0.20 0.19 0.19 0.19 0.19 0.19 0.19 0.19 0.21 0.23 0.24 0.23 0.22 0.25 0.23 0.23 0.24 0.25 0.26 0.27 0.30 0.31 0.33 0.39 0.47
0.41 0.41 0.40 0.38 0.34 0.32 0.30 0.30 0.29 0.27 0.25 0.24 0.24 0.24 0.23 0.22 0.21 0.21 0.20 0.20 0.21 0.21 0.21 0.21 0.21 0.21 0.22 0.23 0.22 0.24 0.23 0.24 0.25 0.26 0.25 0.24 0.24 0.27 0.28 0.31 0.31 0.34 0.38
0.29 0.28 0.26 0.25 0.24 0.25 0.26 0.27 0.27 0.26 0.25 0.24 0.22 0.21 0.21 0.20 0.19 0.20 0.21 0.23 0.24 0.23 0.22 0.23 0.23 0.22 0.23 0.24 0.25 0.24 0.23 0.22 0.20 0.28 0.26 0.24 0.26 0.24 0.26 0.28 0.30 0.30 0.33
0.21 0.20 0.21 0.21 0.22 0.23 0.24 0.24 0.25 0.24 0.23 0.21 0.20 0.19 0.18 0.19 0.21 0.22 0.23 0.25 0.26 0.28 0.29 0.27 0.25 0.26 0.26 0.27 0.27 0.26 0.26 0.25 0.23 0.27 0.27 0.24 0.28 0.27 0.29 0.29 0.29 0.31 0.34
0.19 0.19 0.19 0.21 0.20 0.20 0.21 0.22 0.22 0.22 0.22 0.21 0.20 0.19 0.19 0.21 0.22 0.24 0.25 0.26 0.27 0.29 0.30 0.31 0.30 0.29 0.30 0.31 0.30 0.30 0.28 0.27 0.28 0.28 0.29 0.23 0.28 0.28 0.31 0.32 0.32 0.31 0.31
0.18 0.19 0.19 0.19 0.19 0.20 0.21 0.21 0.21 0.21 0.21 0.20 0.20 0.21 0.22 0.23 0.25 0.28 0.28 0.27 0.28 0.29 0.32 0.33 0.34 0.34 0.34 0.34 0.33 0.32 0.29 0.27 0.25 0.26 0.28 0.26 0.26 0.26 0.28 0.29 0.30 0.28 0.28
0.19 0.20 0.20 0.21 0.22 0.21 0.22 0.21 0.21 0.21 0.19 0.19 0.21 0.22 0.24 0.26 0.29 0.30 0.29 0.28 0.27 0.29 0.31 0.33 0.34 0.34 0.35 0.35 0.36 0.35 0.32 0.28 0.27 0.25 0.28 0.26 0.26 0.27 0.25 0.31 0.31 0.32 0.31

GFSMA_prec_pwat_006.txt.gz
Precipitable_Water
0.92 0.89 0.84 0.81 0.82 0.86 0.86 0.86 0.86 0.78 0.68 0.65 0.66 0.65 0.63 0.63 0.65 0.62 0.62 0.54 0.53 0.55 0.58 0.63 0.71 0.84 0.99 1.08 1.23 1.30 1.40 1.52 1.57 1.53 1.48 1.44 1.41 1.35 1.25 1.15 1.12 1.05 1.02
0.85 0.80 0.77 0.75 0.76 0.79 0.82 0.83 0.80 0.72 0.67 0.64 0.62 0.65 0.63 0.64 0.66 0.64 0.62 0.63 0.56 0.59 0.61 0.63 0.67 0.73 0.84 0.99 1.11 1.20 1.30 1.43 1.54 1.56 1.54 1.51 1.47 1.42 1.40 1.30 1.22 1.18 1.13
0.79 0.77 0.75 0.75 0.75 0.77 0.79 0.83 0.80 0.73 0.67 0.63 0.61 0.64 0.64 0.66 0.64 0.63 0.61 0.61 0.65 0.61 0.60 0.62 0.67 0.68 0.68 0.74 0.89 1.08 1.17 1.25 1.38 1.53 1.52 1.53 1.51 1.50 1.46 1.46 1.35 1.27 1.26
0.81 0.79 0.76 0.74 0.74 0.75 0.75 0.75 0.73 0.69 0.65 0.59 0.55 0.57 0.59 0.60 0.60 0.61 0.62 0.62 0.63 0.62 0.66 0.62 0.64 0.65 0.67 0.69 0.69 0.73 0.94 1.15 1.16 1.24 1.36 1.45 1.47 1.47 1.48 1.50 1.53 1.44 1.38
0.76 0.75 0.72 0.71 0.74 0.71 0.66 0.67 0.67 0.66 0.61 0.57 0.56 0.56 0.56 0.55 0.56 0.57 0.57 0.61 0.62 0.60 0.60 0.64 0.60 0.61 0.64 0.64 0.64 0.66 0.70 0.84 1.11 1.18 1.18 1.30 1.37 1.43 1.46 1.48 1.55 1.58 1.55
0.72 0.72 0.72 0.72 0.75 0.75 0.71 0.69 0.66 0.65 0.63 0.59 0.54 0.51 0.53 0.57 0.58 0.55 0.55 0.57 0.57 0.62 0.61 0.62 0.63 0.65 0.58 0.57 0.59 0.61 0.67 0.69 0.76 0.99 1.13 1.20 1.31 1.39 1.43 1.46 1.48 1.51 1.55
0.71 0.70 0.68 0.68 0.67 0.65 0.65 0.66 0.65 0.64 0.63 0.65 0.59 0.53 0.53 0.57 0.59 0.56 0.57 0.55 0.53 0.58 0.61 0.63 0.57 0.56 0.57 0.53 0.51 0.57 0.60 0.67 0.69 0.74 0.82 0.99 1.07 1.22 1.36 1.43 1.47 1.49 1.48
0.67 0.62 0.59 0.57 0.55 0.54 0.54 0.55 0.56 0.56 0.60 0.64 0.57 0.55 0.46 0.50 0.55 0.57 0.55 0.53 0.55 0.57 0.59 0.61 0.54 0.53 0.52 0.52 0.54 0.51 0.52 0.56 0.62 0.69 0.72 0.81 0.79 0.86 0.94 1.18 1.34 1.36 1.40
0.60 0.56 0.51 0.48 0.47 0.46 0.44 0.47 0.49 0.49 0.48 0.56 0.63 0.56 0.46 0.43 0.50 0.54 0.58 0.56 0.55 0.55 0.56 0.56 0.51 0.50 0.50 0.51 0.51 0.52 0.51 0.50 0.54 0.61 0.64 0.73 0.76 0.75 0.75 0.85 1.00 1.28 1.36
0.54 0.49 0.45 0.44 0.44 0.45 0.44 0.45 0.46 0.48 0.50 0.44 0.54 0.59 0.62 0.56 0.49 0.47 0.55 0.58 0.57 0.56 0.55 0.52 0.52 0.52 0.52 0.50 0.46 0.46 0.46 0.48 0.52 0.57 0.60 0.62 0.70 0.72 0.72 0.74 0.79 0.87 1.08
0.45 0.47 0.47 0.46 0.45 0.44 0.43 0.44 0.44 0.46 0.48 0.47 0.48 0.50 0.51 0.59 0.56 0.52 0.46 0.53 0.57 0.56 0.51 0.50 0.52 0.54 0.55 0.52 0.50 0.53 0.48 0.45 0.49 0.53 0.57 0.58 0.62 0.68 0.71 0.73 0.76 0.76 0.79
0.47 0.47 0.47 0.45 0.45 0.44 0.43 0.43 0.46 0.46 0.45 0.47 0.48 0.48 0.46 0.44 0.46 0.47 0.45 0.49 0.52 0.53 0.50 0.52 0.51 0.52 0.56 0.54 0.53 0.48 0.47 0.46 0.47 0.50 0.55 0.56 0.58 0.69 0.67 0.66 0.71 0.76 0.77
0.43 0.43 0.44 0.42 0.43 0.44 0.45 0.47 0.49 0.49 0.48 0.46 0.47 0.48 0.51 0.52 0.53 0.52 0.50 0.47 0.48 0.52 0.53 0.52 0.50 0.53 0.53 0.55 0.52 0.53 0.46 0.45 0.45 0.51 0.54 0.56 0.57 0.59 0.62 0.66 0.68 0.69 0.70
0.43 0.45 0.44 0.46 0.48 0.50 0.52 0.53 0.53 0.53 0.53 0.52 0.51 0.50 0.49 0.52 0.53 0.52 0.49 0.46 0.44 0.47 0.53 0.52 0.54 0.52 0.51 0.50 0.49 0.46 0.43 0.43 0.44 0.47 0.52 0.56 0.59 0.56 0.57 0.61 0.62 0.60 0.59
0.43 0.45 0.49 0.48 0.45 0.47 0.48 0.48 0.49 0.50 0.51 0.50 0.49 0.50 0.49 0.50 0.49 0.48 0.50 0.48 0.42 0.36 0.39 0.47 0.47 0.52 0.49 0.48 0.47 0.45 0.46 0.46 0.48 0.43 0.47 0.50 0.54 0.52 0.52 0.50 0.50 0.51 0.53
0.49 0.46 0.45 0.46 0.46 0.48 0.49 0.48 0.49 0.50 0.48 0.46 0.45 0.44 0.41 0.40 0.41 0.42 0.42 0.42 0.41 0.37 0.32 0.36 0.36 0.37 0.39 0.38 0.41 0.40 0.39 0.40 0.40 0.39 0.38 0.43 0.46 0.49 0.48 0.47 0.46 0.45 0.47
0.44 0.44 0.45 0.46 0.47 0.48 0.51 0.50 0.48 0.47 0.42 0.40 0.39 0.37 0.35 0.34 0.33 0.32 0.32 0.32 0.32 0.31 0.27 0.29 0.31 0.32 0.32 0.33 0.34 0.36 0.36 0.36 0.37 0.39 0.36 0.34 0.35 0.38 0.43 0.44 0.46 0.46 0.45
0.47 0.46 0.48 0.48 0.48 0.48 0.47 0.44 0.43 0.41 0.37 0.34 0.34 0.34 0.32 0.29 0.27 0.28 0.28 0.29 0.29 0.30 0.28 0.25 0.28 0.28 0.29 0.30 0.32 0.32 0.32 0.32 0.33 0.34 0.35 0.35 0.34 0.33 0.35 0.37 0.39 0.44 0.47
0.46 0.47 0.46 0.45 0.46 0.46 0.44 0.41 0.37 0.35 0.35 0.35 0.34 0.31 0.29 0.27 0.26 0.27 0.27 0.27 0.27 0.26 0.26 0.25 0.24 0.26 0.26 0.27 0.26 0.28 0.29 0.30 0.31 0.30 0.32 0.34 0.34 0.31 0.30 0.31 0.33 0.34 0.39
0.41 0.41 0.39 0.39 0.38 0.34 0.33 0.33 0.32 0.33 0.32 0.30 0.29 0.28 0.27 0.26 0.25 0.25 0.24 0.23 0.23 0.22 0.21 0.21 0.20 0.20 0.22 0.24 0.24 0.24 0.24 0.27 0.27 0.29 0.29 0.28 0.29 0.30 0.32 0.30 0.28 0.28 0.31
0.27 0.27 0.25 0.25 0.24 0.24 0.24 0.25 0.24 0.26 0.27 0.27 0.27 0.27 0.26 0.26 0.24 0.24 0.22 0.20 0.20 0.19 0.20 0.21 0.21 0.21 0.22 0.23 0.23 0.25 0.24 0.26 0.27 0.29 0.29 0.29 0.29 0.29 0.27 0.26 0.24 0.25 0.25
0.24 0.23 0.22 0.21 0.20 0.21 0.23 0.22 0.22 0.22 0.22 0.22 0.23 0.23 0.24 0.23 0.22 0.22 0.21 0.22 0.22 0.20 0.20 0.20 0.21 0.20 0.21 0.24 0.26 0.26 0.26 0.25 0.22 0.30 0.28 0.27 0.30 0.29 0.30 0.30 0.30 0.31 0.31
0.22 0.20 0.19 0.21 0.21 0.22 0.22 0.21 0.21 0.20 0.20 0.21 0.22 0.22 0.22 0.21 0.21 0.22 0.23 0.24 0.24 0.24 0.25 0.24 0.23 0.24 0.25 0.28 0.29 0.28 0.28 0.27 0.25 0.28 0.29 0.27 0.32 0.31 0.34 0.33 0.31 0.29 0.30
0.19 0.19 0.20 0.21 0.22 0.23 0.22 0.23 0.22 0.22 0.23 0.23 0.23 0.23 0.21 0.21 0.22 0.23 0.23 0.23 0.24 0.26 0.27 0.29 0.29 0.29 0.30 0.30 0.31 0.30 0.30 0.30 0.31 0.31 0.31 0.26 0.31 0.29 0.32 0.33 0.33 0.33 0.32
0.19 0.20 0.22 0.23 0.23 0.23 0.24 0.23 0.22 0.21 0.22 0.22 0.22 0.22 0.22 0.23 0.24 0.25 0.25 0.25 0.25 0.27 0.31 0.32 0.31 0.31 0.32 0.34 0.34 0.33 0.31 0.29 0.27 0.28 0.31 0.29 0.29 0.29 0.30 0.30 0.33 0.33 0.35
0.21 0.24 0.25 0.25 0.24 0.23 0.25 0.23 0.22 0.21 0.20 0.21 0.22 0.23 0.24 0.24 0.25 0.26 0.26 0.26 0.25 0.26 0.29 0.31 0.32 0.35 0.36 0.34 0.34 0.34 0.33 0.29 0.28 0.27 0.31 0.28 0.29 0.29 0.26 0.30 0.31 0.32 0.33

GFSMA_prec_pwat_009.txt.gz
Precipitable_Water
0.90 0.89 0.85 0.84 0.81 0.82 0.83 0.82 0.82 0.83 0.77 0.72 0.69 0.69 0.68 0.67 0.69 0.68 0.69 0.69 0.61 0.58 0.60 0.62 0.67 0.72 0.80 0.88 0.98 1.08 1.21 1.33 1.40 1.49 1.45 1.47 1.41 1.39 1.37 1.34 1.31 1.21 1.10
0.86 0.84 0.80 0.79 0.78 0.78 0.78 0.77 0.80 0.79 0.73 0.67 0.64 0.63 0.66 0.65 0.66 0.69 0.67 0.70 0.64 0.61 0.64 0.66 0.68 0.72 0.75 0.80 0.88 0.99 1.07 1.21 1.29 1.40 1.57 1.53 1.45 1.43 1.42 1.41 1.32 1.21 1.14
0.83 0.81 0.81 0.81 0.80 0.79 0.78 0.78 0.77 0.78 0.76 0.73 0.65 0.61 0.62 0.63 0.63 0.64 0.65 0.62 0.68 0.65 0.63 0.65 0.68 0.68 0.69 0.73 0.75 0.83 0.94 1.03 1.17 1.25 1.41 1.50 1.53 1.47 1.43 1.43 1.40 1.31 1.24
0.82 0.80 0.77 0.75 0.78 0.77 0.77 0.76 0.73 0.73 0.72 0.70 0.67 0.63 0.59 0.59 0.59 0.59 0.60 0.59 0.59 0.64 0.66 0.66 0.64 0.65 0.67 0.69 0.69 0.71 0.76 0.88 0.99 1.13 1.24 1.39 1.54 1.55 1.50 1.46 1.47 1.45 1.36
0.80 0.78 0.76 0.76 0.79 0.79 0.76 0.75 0.71 0.70 0.68 0.68 0.66 0.65 0.61 0.59 0.60 0.59 0.57 0.58 0.58 0.56 0.59 0.66 0.60 0.57 0.58 0.59 0.61 0.64 0.68 0.72 0.81 0.92 1.06 1.19 1.30 1.46 1.45 1.45 1.49 1.50 1.50
0.81 0.78 0.76 0.76 0.75 0.71 0.69 0.69 0.68 0.69 0.68 0.66 0.63 0.62 0.62 0.59 0.57 0.59 0.59 0.58 0.58 0.62 0.59 0.60 0.60 0.57 0.59 0.54 0.52 0.54 0.61 0.67 0.70 0.76 0.87 1.00 1.16 1.25 1.30 1.40 1.43 1.47 1.52
0.74 0.72 0.69 0.67 0.64 0.59 0.56 0.53 0.52 0.51 0.54 0.58 0.59 0.60 0.61 0.61 0.60 0.58 0.59 0.59 0.58 0.59 0.60 0.62 0.64 0.60 0.59 0.53 0.50 0.50 0.52 0.58 0.65 0.69 0.77 0.79 0.82 0.97 1.16 1.28 1.38 1.38 1.46
0.77 0.73 0.67 0.61 0.56 0.50 0.48 0.49 0.50 0.49 0.51 0.55 0.52 0.52 0.48 0.53 0.59 0.64 0.64 0.62 0.57 0.58 0.57 0.60 0.65 0.62 0.57 0.55 0.54 0.52 0.49 0.49 0.51 0.57 0.65 0.72 0.79 0.75 0.78 0.94 1.13 1.33 1.41
0.71 0.66 0.61 0.57 0.53 0.53 0.50 0.51 0.51 0.49 0.46 0.49 0.53 0.50 0.45 0.42 0.52 0.56 0.66 0.71 0.70 0.66 0.59 0.58 0.62 0.60 0.56 0.53 0.54 0.51 0.49 0.47 0.46 0.48 0.54 0.63 0.68 0.75 0.73 0.70 0.79 0.98 1.20
0.63 0.58 0.55 0.53 0.56 0.53 0.50 0.49 0.48 0.48 0.45 0.40 0.45 0.48 0.51 0.53 0.48 0.47 0.56 0.67 0.72 0.67 0.67 0.65 0.64 0.61 0.55 0.53 0.53 0.53 0.52 0.50 0.47 0.49 0.51 0.55 0.61 0.74 0.72 0.70 0.71 0.81 0.86
0.58 0.54 0.51 0.51 0.51 0.50 0.50 0.49 0.49 0.49 0.49 0.46 0.45 0.47 0.49 0.49 0.54 0.53 0.46 0.54 0.68 0.72 0.73 0.72 0.71 0.60 0.59 0.58 0.54 0.49 0.51 0.49 0.48 0.49 0.52 0.52 0.54 0.60 0.74 0.73 0.72 0.74 0.73
0.50 0.49 0.50 0.54 0.54 0.54 0.54 0.50 0.51 0.51 0.51 0.49 0.48 0.46 0.45 0.41 0.41 0.42 0.40 0.43 0.50 0.63 0.75 0.74 0.73 0.66 0.65 0.62 0.60 0.56 0.50 0.51 0.48 0.49 0.53 0.54 0.53 0.52 0.61 0.73 0.73 0.73 0.77
0.48 0.50 0.55 0.55 0.54 0.55 0.54 0.55 0.56 0.54 0.54 0.51 0.51 0.48 0.48 0.47 0.48 0.46 0.44 0.43 0.46 0.55 0.64 0.74 0.72 0.69 0.63 0.63 0.61 0.56 0.48 0.47 0.47 0.47 0.51 0.55 0.56 0.54 0.59 0.61 0.64 0.69 0.74
0.49 0.51 0.52 0.52 0.52 0.51 0.52 0.51 0.52 0.50 0.50 0.51 0.50 0.51 0.50 0.50 0.51 0.51 0.47 0.44 0.40 0.45 0.54 0.56 0.63 0.67 0.67 0.64 0.60 0.55 0.52 0.49 0.45 0.43 0.48 0.53 0.59 0.58 0.56 0.57 0.58 0.58 0.60
0.46 0.47 0.49 0.46 0.47 0.47 0.49 0.49 0.49 0.47 0.48 0.49 0.49 0.50 0.48 0.50 0.52 0.50 0.48 0.46 0.40 0.35 0.37 0.47 0.51 0.61 0.65 0.65 0.56 0.53 0.51 0.52 0.49 0.44 0.43 0.49 0.54 0.57 0.56 0.54 0.54 0.52 0.49
0.44 0.44 0.45 0.47 0.48 0.50 0.51 0.49 0.48 0.48 0.47 0.47 0.47 0.44 0.43 0.43 0.42 0.43 0.44 0.47 0.46 0.40 0.33 0.39 0.39 0.46 0.48 0.47 0.47 0.47 0.50 0.48 0.49 0.48 0.46 0.46 0.47 0.49 0.52 0.51 0.49 0.47 0.46
0.44 0.44 0.45 0.45 0.47 0.47 0.49 0.50 0.47 0.46 0.46 0.46 0.44 0.41 0.38 0.39 0.36 0.34 0.33 0.34 0.33 0.34 0.30 0.30 0.33 0.35 0.36 0.38 0.40 0.42 0.43 0.44 0.43 0.41 0.39 0.38 0.38 0.41 0.44 0.46 0.47 0.45 0.44
0.44 0.44 0.45 0.45 0.46 0.48 0.49 0.47 0.45 0.43 0.40 0.39 0.39 0.39 0.38 0.37 0.35 0.34 0.32 0.30 0.30 0.30 0.29 0.26 0.30 0.31 0.33 0.35 0.36 0.37 0.37 0.39 0.39 0.38 0.38 0.37 0.38 0.35 0.33 0.37 0.40 0.42 0.42
0.38 0.38 0.38 0.38 0.36 0.36 0.34 0.32 0.31 0.32 0.34 0.34 0.34 0.33 0.32 0.32 0.30 0.30 0.30 0.30 0.30 0.30 0.29 0.27 0.27 0.28 0.29 0.30 0.30 0.31 0.32 0.34 0.35 0.36 0.38 0.38 0.39 0.40 0.38 0.34 0.33 0.35 0.36
0.31 0.29 0.28 0.27 0.26 0.26 0.24 0.25 0.24 0.24 0.23 0.24 0.26 0.27 0.28 0.28 0.28 0.28 0.27 0.28 0.27 0.26 0.25 0.24 0.23 0.24 0.24 0.25 0.26 0.25 0.26 0.29 0.29 0.31 0.31 0.31 0.32 0.34 0.35 0.34 0.32 0.32 0.31
0.28 0.26 0.25 0.25 0.24 0.24 0.24 0.24 0.23 0.21 0.21 0.21 0.23 0.24 0.25 0.27 0.27 0.25 0.24 0.23 0.23 0.23 0.22 0.21 0.21 0.22 0.23 0.24 0.24 0.27 0.27 0.28 0.30 0.31 0.31 0.31 0.33 0.33 0.31 0.30 0.28 0.27 0.26
0.25 0.25 0.24 0.23 0.24 0.23 0.25 0.23 0.23 0.22 0.21 0.21 0.21 0.22 0.23 0.24 0.26 0.25 0.25 0.24 0.23 0.21 0.20 0.20 0.20 0.20 0.22 0.24 0.25 0.25 0.26 0.25 0.23 0.31 0.29 0.29 0.34 0.32 0.33 0.35 0.35 0.34 0.31
0.25 0.23 0.23 0.24 0.24 0.25 0.26 0.24 0.24 0.23 0.22 0.22 0.23 0.24 0.24 0.24 0.24 0.24 0.24 0.25 0.26 0.26 0.25 0.23 0.20 0.20 0.21 0.23 0.26 0.26 0.27 0.28 0.27 0.30 0.31 0.28 0.33 0.33 0.35 0.34 0.34 0.35 0.35
0.24 0.24 0.24 0.24 0.25 0.25 0.27 0.26 0.25 0.24 0.23 0.23 0.24 0.24 0.24 0.23 0.24 0.25 0.25 0.24 0.24 0.24 0.25 0.27 0.27 0.26 0.27 0.28 0.29 0.29 0.29 0.30 0.31 0.33 0.34 0.26 0.31 0.30 0.34 0.35 0.35 0.34 0.34
0.24 0.24 0.24 0.25 0.25 0.25 0.26 0.27 0.25 0.22 0.22 0.22 0.23 0.24 0.24 0.23 0.22 0.23 0.23 0.23 0.23 0.24 0.28 0.30 0.30 0.30 0.30 0.31 0.31 0.32 0.30 0.30 0.27 0.28 0.31 0.29 0.30 0.30 0.32 0.32 0.34 0.33 0.33
0.25 0.26 0.26 0.26 0.26 0.26 0.28 0.26 0.25 0.23 0.21 0.22 0.23 0.23 0.24 0.25 0.26 0.26 0.25 0.25 0.23 0.24 0.26 0.28 0.29 0.32 0.36 0.36 0.35 0.33 0.31 0.28 0.28 0.27 0.31 0.29 0.29 0.29 0.27 0.33 0.33 0.33 0.34